Theta_e
302 303 303 303 304 304 304 304 305 304 303 299 298 298 293 291 292 302 307 308 303 290 281 285 284 287 287 293 292 293 292 291 292 290 291 290 291 289 288 289 286 287 286 286 286 287 284 288 287 289 292 292 295 297 296 297 297 293 290 296 292 307 282 282 282 284 286 291 293 294 294 293 291 289 292 291 287 287 284 279 281 281 281 281 278 276 278
302 302 303 303 304 304 304 304 304 304 304 300 299 292 289 293 292 298 306 306 299 291 283 282 280 284 290 291 291 293 292 291 289 289 289 289 288 288 288 289 289 287 289 287 287 290 279 287 289 287 291 291 296 297 298 299 296 293 290 290 296 285 283 285 279 276 279 284 288 287 291 291 286 287 289 292 291 288 287 285 282 282 281 281 280 273 278
302 302 303 303 304 304 304 304 304 304 305 304 298 292 292 291 295 296 298 302 298 290 286 284 278 283 287 286 287 289 291 292 292 290 289 291 290 288 287 290 290 289 290 289 290 292 286 283 291 291 290 291 295 298 298 302 300 303 305 303 298 287 286 283 278 273 272 272 272 275 281 285 286 289 291 292 292 287 286 282 281 280 281 283 278 275 283
302 302 303 303 304 304 304 304 304 304 305 303 299 295 292 289 285 289 292 291 294 293 292 289 286 283 285 280 286 289 286 290 292 291 292 291 291 289 290 289 290 288 287 286 286 287 291 288 288 288 288 289 293 296 298 301 301 307 307 303 297 287 287 284 280 277 276 279 279 284 288 287 285 288 289 290 290 288 284 281 279 281 279 281 280 286 289
302 302 303 303 303 304 304 304 304 304 304 303 299 295 293 291 286 284 287 287 287 287 287 289 288 286 286 281 287 284 286 288 289 291 287 292 289 290 288 288 286 285 285 284 284 285 288 288 287 287 290 290 292 294 297 298 305 306 302 304 292 286 282 286 286 285 286 286 287 290 292 288 289 287 287 289 290 288 281 278 280 282 283 278 284 291 290
302 302 303 303 303 304 304 304 304 304 303 304 298 292 293 283 285 287 288 286 283 285 284 288 287 289 288 285 288 285 284 284 282 288 290 291 291 285 286 287 287 286 286 285 279 282 283 283 282 287 289 288 290 292 297 296 302 302 297 300 294 287 282 286 286 287 289 289 288 289 289 289 288 288 287 288 289 290 287 285 285 284 280 282 286 292 291
302 302 302 303 303 304 304 305 305 304 302 303 296 290 289 288 287 290 293 286 283 284 289 289 286 286 288 284 286 284 283 283 287 286 287 288 287 287 279 283 286 286 287 283 281 281 279 278 282 284 284 285 287 287 290 295 298 298 296 297 294 288 283 284 289 287 288 289 289 288 288 287 287 286 287 288 289 289 288 287 287 285 285 285 291 292 292
301 302 302 303 304 304 304 304 305 304 301 300 294 291 288 288 287 288 288 287 286 287 287 286 283 283 288 283 284 287 284 283 286 288 287 281 284 288 284 285 286 286 286 284 280 283 283 283 279 283 283 282 286 287 290 290 293 296 293 298 296 290 283 290 288 285 286 288 290 289 287 287 284 286 286 286 287 289 289 285 287 288 290 291 293 292 291
301 302 302 303 303 304 304 304 305 303 301 296 293 292 292 293 291 292 287 283 285 289 285 284 280 277 280 280 284 287 285 285 287 286 290 287 285 287 285 286 286 286 286 286 284 285 285 285 285 286 285 281 287 285 287 293 288 291 289 291 292 290 285 291 286 284 283 287 287 288 287 286 285 284 284 284 284 285 287 285 288 285 288 291 292 290 289
301 302 302 303 303 304 304 304 305 304 301 293 291 292 293 293 293 291 283 280 286 283 283 281 279 279 282 285 283 285 285 287 287 279 284 289 290 289 288 287 285 282 283 284 286 288 287 288 288 288 288 288 289 289 290 290 288 289 290 291 286 288 285 283 284 284 283 287 287 287 286 283 282 282 284 284 285 288 289 289 289 289 292 291 289 289 295
301 301 302 303 303 304 304 305 305 304 300 293 289 292 292 293 292 290 283 282 281 281 279 280 280 285 285 286 285 287 286 286 286 282 280 288 288 290 289 287 284 281 282 287 291 290 291 291 290 288 287 289 290 290 291 292 290 291 291 289 289 290 288 284 288 283 283 285 285 287 283 276 277 287 289 287 286 286 288 287 288 290 289 288 292 295 297
301 301 302 302 303 303 304 304 305 305 302 297 295 294 294 294 290 283 278 280 280 281 280 281 282 284 284 286 286 285 284 284 284 289 284 285 287 289 289 286 285 280 286 290 291 290 290 290 290 288 289 290 290 291 292 291 292 294 295 291 287 287 286 285 286 283 283 284 285 282 276 278 288 292 292 291 290 291 290 289 289 290 292 295 295 295 296
301 301 302 302 303 303 304 304 305 305 305 297 295 294 295 296 294 284 281 281 278 279 278 282 285 286 286 286 285 285 286 286 286 287 288 288 286 288 289 288 284 287 291 290 290 289 286 283 285 286 288 289 290 291 291 290 290 292 293 294 290 286 286 284 282 283 283 282 281 276 277 285 290 292 291 292 292 289 288 288 289 290 290 293 291 292 292
301 301 302 302 303 303 304 304 305 305 305 301 293 293 294 296 291 285 280 278 280 280 282 280 282 284 284 284 284 284 284 285 285 285 286 288 288 289 291 290 290 293 292 290 287 288 283 283 281 280 283 283 283 283 288 289 290 290 290 291 293 291 287 285 283 284 279 279 279 280 285 285 286 286 286 287 284 286 284 283 286 291 292 291 289 289 291
301 301 301 302 302 303 304 304 305 305 305 304 295 293 294 295 291 289 285 283 280 282 280 279 281 283 284 284 284 281 280 280 283 282 286 287 288 290 291 292 293 292 290 289 284 283 280 281 279 278 280 277 274 278 284 284 288 290 290 290 291 290 287 286 284 282 283 279 277 278 277 276 281 286 291 294 293 291 290 288 286 293 293 294 291 290 291
301 301 301 302 302 303 304 304 304 305 305 304 295 293 295 296 294 291 285 280 279 277 280 284 285 285 283 283 284 283 280 277 280 279 282 282 285 288 290 291 292 291 291 287 285 282 282 281 277 274 275 276 280 279 277 283 282 287 287 290 290 289 289 286 285 282 281 278 276 275 274 278 284 285 288 290 292 292 291 287 284 290 292 294 292 290 290
301 301 301 301 302 303 303 304 304 305 305 304 296 293 296 297 295 288 283 282 282 280 280 285 286 284 279 279 281 281 282 280 281 279 277 279 283 285 287 290 291 291 289 282 283 281 281 278 278 278 280 282 278 277 282 279 277 279 285 286 287 286 283 284 283 279 279 278 277 276 280 279 284 286 288 289 290 291 289 280 281 289 292 292 292 291 291
300 301 301 301 302 302 303 304 304 305 305 305 297 293 295 298 295 290 286 282 279 280 284 286 284 280 281 281 281 284 283 281 281 278 278 280 282 282 285 287 287 290 290 282 280 279 278 275 277 275 276 284 283 280 273 280 277 278 280 280 279 280 282 283 279 278 279 280 277 276 277 283 286 287 288 289 291 291 281 276 283 290 291 291 290 291 292
300 300 300 301 302 302 303 303 304 305 305 305 299 293 295 297 298 290 286 282 281 281 282 286 288 285 287 288 285 286 286 285 282 277 277 276 281 285 285 287 288 283 287 280 280 279 276 276 279 277 276 278 281 277 280 275 277 281 278 276 278 278 280 281 280 278 276 275 275 274 276 282 287 288 288 290 289 280 276 283 288 290 290 291 291 290 289
300 300 300 301 301 302 303 303 304 305 305 305 298 292 294 296 298 295 286 282 278 281 284 287 288 287 288 286 283 281 282 282 279 278 277 276 282 284 280 279 283 284 282 281 279 280 275 275 276 278 275 276 280 281 275 278 281 280 280 280 276 278 276 277 277 277 275 274 273 273 274 281 289 287 287 288 283 280 287 286 288 290 288 289 289 289 289
299 300 300 301 302 302 303 303 304 304 305 305 302 292 293 295 297 296 291 286 283 281 281 287 288 288 288 287 287 287 284 283 283 282 281 280 283 279 273 274 279 279 279 279 277 277 278 275 277 278 280 279 279 278 276 274 279 283 283 282 281 283 277 277 278 282 275 275 274 274 280 284 288 286 281 284 286 289 288 288 288 290 290 288 288 289 290
299 299 300 301 301 302 303 303 304 304 305 305 302 291 291 295 297 299 296 290 283 282 286 288 291 288 288 289 290 289 288 288 291 288 285 282 283 282 281 281 283 282 284 280 277 276 279 279 279 274 275 277 280 274 276 270 273 279 283 282 276 284 281 278 276 281 277 277 280 285 286 286 288 287 287 287 289 290 290 290 290 289 290 291 290 290 290
299 299 300 300 301 302 302 303 303 304 304 305 300 293 292 295 297 298 290 289 287 287 288 287 286 289 292 292 292 291 290 290 291 287 283 282 282 281 282 282 281 286 286 284 282 279 280 278 276 278 276 278 276 275 279 275 274 279 277 284 283 287 285 284 283 281 286 286 287 288 287 288 288 289 290 289 290 291 291 290 289 290 291 292 290 290 290
299 299 300 300 301 301 302 303 303 303 304 304 302 292 292 293 296 294 292 288 284 285 285 285 284 283 283 288 292 292 293 293 293 293 290 286 280 279 279 282 285 284 281 285 282 284 279 277 281 279 275 278 277 273 271 274 274 279 277 278 279 283 282 280 280 283 279 277 286 286 286 287 288 289 291 292 292 292 292 291 290 290 291 291 291 291 291
299 299 300 300 301 301 302 302 303 303 303 304 302 297 295 292 293 293 289 286 284 279 280 281 280 289 290 291 291 291 292 293 296 293 290 289 286 282 282 288 289 287 285 286 282 280 278 277 280 277 275 280 279 275 277 275 276 278 273 277 278 282 285 282 279 278 277 279 284 284 285 286 289 290 289 289 291 292 292 292 293 293 293 293 293 293 292
299 299 300 300 301 301 302 302 303 303 303 304 303 292 292 293 294 293 293 292 285 281 280 278 285 291 290 291 292 293 294 292 292 292 293 293 290 289 290 289 287 287 286 284 283 279 276 275 275 275 277 278 279 276 277 280 279 279 278 279 281 281 284 277 280 278 280 282 283 283 285 285 286 289 290 291 291 291 292 292 293 293 293 293 294 295 294
299 300 300 300 301 301 302 302 303 303 303 304 299 292 293 294 293 295 292 289 283 281 280 281 281 286 291 290 293 292 295 292 292 292 292 292 290 288 287 285 284 283 283 281 280 278 278 277 276 279 279 280 280 280 280 280 278 274 275 280 281 281 280 281 281 278 274 276 280 282 279 277 283 286 288 290 291 291 291 291 291 291 290 290 290 289 290
299 300 300 301 301 302 303 303 303 303 303 303 298 293 293 290 292 293 292 290 288 282 282 280 282 286 288 291 292 289 292 294 291 291 290 290 289 287 287 285 282 283 281 279 281 280 276 276 280 276 276 279 278 279 279 279 278 276 279 280 280 280 281 278 274 276 276 279 284 283 282 283 283 285 286 287 288 289 290 290 289 289 289 288 288 287 287
300 301 301 301 302 303 303 303 303 303 304 301 291 292 291 292 293 295 298 296 290 284 280 282 283 283 280 285 291 289 290 293 291 289 289 289 289 287 286 285 283 281 280 279 278 277 277 278 276 278 280 281 278 277 276 274 270 272 278 280 280 283 283 282 281 282 283 285 286 285 284 283 284 285 286 287 286 286 285 285 286 286 286 286 287 288 287
300 301 301 302 303 303 303 303 303 303 303 290 290 284 284 291 290 295 298 298 290 285 283 280 279 281 285 288 290 288 291 292 290 290 289 288 288 287 287 284 285 285 283 280 279 277 279 279 276 278 282 283 279 273 271 274 272 278 279 280 283 283 284 284 285 284 283 287 287 287 286 286 286 286 286 287 288 286 284 284 283 283 284 284 285 284 286
301 302 302 303 303 304 304 304 304 303 299 288 285 283 280 283 288 292 299 296 293 287 281 280 281 281 283 288 289 289 288 291 289 288 288 287 287 287 287 285 284 285 281 280 280 280 278 277 277 280 280 284 278 272 275 273 272 277 280 281 282 284 285 284 284 286 286 286 286 286 287 287 288 288 288 288 288 288 286 286 288 290 286 285 284 285 284
301 302 302 303 303 304 304 304 304 302 289 287 285 284 283 285 288 293 299 299 293 289 282 279 280 281 279 282 287 290 290 290 289 285 284 287 287 286 286 287 285 284 286 280 279 279 279 277 277 280 280 283 279 272 275 274 272 276 281 281 282 282 283 284 285 285 286 287 286 285 284 285 287 288 286 287 286 285 284 284 284 285 287 284 283 283 283
301 302 302 303 304 304 304 304 304 301 293 295 299 300 300 301 302 301 300 295 292 286 282 278 277 279 279 283 288 290 290 284 285 282 285 286 287 283 282 284 282 282 291 283 280 279 280 277 275 278 281 279 274 274 274 271 277 280 280 283 282 283 283 283 284 284 285 285 285 282 281 282 284 286 286 285 285 285 285 284 283 283 283 283 283 283 282
301 302 303 303 303 304 304 304 304 302 298 292 291 291 296 301 296 301 294 291 288 286 280 280 277 278 279 283 284 287 289 284 283 280 281 286 284 281 281 282 283 282 283 282 280 280 280 279 278 275 276 277 273 273 273 279 280 281 281 281 282 281 282 283 283 284 284 285 285 286 287 287 287 287 287 287 287 288 286 283 283 283 281 282 282 282 282
301 302 303 304 304 304 304 301 291 293 292 292 291 290 289 302 301 301 298 290 285 282 279 281 278 275 279 278 277 282 287 283 282 282 281 284 285 285 282 280 279 280 281 282 277 276 276 279 279 276 277 274 273 272 271 277 281 281 282 281 282 281 282 282 283 283 282 283 284 284 284 285 285 284 285 285 286 286 284 283 281 282 281 281 283 282 282
301 302 303 304 304 302 293 298 291 289 287 289 291 299 304 303 304 293 295 291 287 279 276 279 277 276 274 273 275 282 288 282 282 281 283 280 280 283 280 278 278 280 281 277 277 275 277 281 278 274 271 272 274 274 277 279 279 281 280 281 282 283 283 283 283 283 283 283 283 283 283 282 282 282 282 282 282 283 282 282 281 281 281 281 281 281 282
302 303 304 301 293 293 286 287 292 291 289 290 295 303 303 301 296 294 292 291 293 289 283 275 277 280 278 276 277 280 282 279 280 277 281 280 278 278 278 276 277 280 275 275 275 276 279 282 274 271 271 270 276 280 280 280 280 281 282 282 283 282 281 282 283 283 282 282 283 283 283 283 282 281 281 282 282 281 281 282 281 282 281 281 281 281 282
303 302 291 289 286 283 284 284 290 293 301 300 301 293 290 288 285 283 283 282 285 289 280 281 279 281 279 278 278 284 280 277 279 280 279 279 278 279 278 278 278 279 272 274 277 282 275 274 273 273 275 277 278 280 281 281 281 281 282 282 282 282 281 283 284 283 282 282 283 284 283 282 282 281 281 282 281 281 281 282 281 282 282 282 283 282 281
299 290 287 286 283 284 284 290 294 302 295 295 290 285 284 282 280 280 280 281 281 282 279 279 280 279 278 279 281 283 284 280 275 275 275 281 277 275 277 274 278 274 271 273 276 278 273 273 269 268 273 276 279 282 281 283 282 282 282 282 283 283 283 284 284 285 283 282 282 282 282 282 281 283 281 281 282 281 281 280 280 281 281 282 282 281 282
289 288 285 283 284 286 290 294 299 295 291 287 282 281 280 280 280 279 279 279 279 279 277 279 283 281 281 280 280 280 284 280 276 277 276 277 282 276 278 276 278 273 269 268 275 277 270 270 269 268 273 273 279 281 282 282 283 283 283 283 283 282 282 283 284 283 284 283 283 283 282 281 282 283 282 281 281 283 283 282 281 281 280 281 281 282 282
287 286 285 284 288 288 290 292 290 284 282 280 278 279 278 279 280 280 277 275 277 279 280 281 279 280 282 280 280 279 284 285 282 278 275 276 281 279 274 274 276 271 268 271 276 274 269 268 266 266 272 275 278 282 282 282 283 284 284 284 283 283 283 283 283 283 285 285 285 284 283 283 282 281 282 282 281 280 280 282 283 282 282 282 281 282 282
288 288 288 290 291 291 289 286 282 282 279 280 277 275 276 277 279 279 277 275 276 276 282 280 279 280 282 283 283 282 282 284 280 277 277 277 281 275 274 275 274 268 268 273 275 270 268 268 268 270 273 277 278 281 281 283 283 283 284 284 284 283 283 284 284 284 283 284 283 283 282 282 281 282 283 282 282 281 281 281 283 283 283 283 283 282 282
299 297 293 287 284 284 282 281 281 278 274 274 271 273 275 275 277 275 278 278 278 279 281 285 284 283 285 284 284 283 283 286 283 280 276 276 279 276 273 270 271 270 274 275 272 267 267 266 267 270 275 279 281 281 281 281 283 283 283 283 283 283 283 284 284 285 284 283 283 283 283 282 282 283 284 284 283 284 283 282 282 283 282 283 283 283 282
293 292 287 282 282 282 281 277 282 280 276 274 273 271 273 273 276 274 273 277 277 279 282 282 282 280 279 283 281 281 281 284 282 278 278 278 276 274 271 270 272 274 274 270 268 268 269 266 268 274 278 279 282 281 280 282 283 283 284 284 283 283 283 284 285 285 285 283 283 283 283 284 284 285 285 284 284 283 283 283 283 282 282 283 283 283 282
285 282 278 277 276 279 279 272 277 276 273 274 276 273 272 271 273 269 275 278 280 282 281 280 280 281 281 282 281 281 281 280 280 277 276 275 271 273 271 271 272 270 270 269 265 262 268 273 276 278 281 281 281 280 279 281 281 282 283 283 283 283 283 284 284 283 283 283 283 283 284 284 284 285 285 285 284 283 284 284 284 283 281 282 282 283 282
282 279 275 274 273 275 276 273 273 273 275 277 276 276 276 276 278 280 281 280 280 282 283 281 282 281 280 280 280 281 278 276 276 277 278 274 271 272 276 275 271 267 266 261 264 268 269 274 275 277 279 279 279 280 280 281 282 281 284 284 284 283 282 282 282 282 282 282 283 282 283 283 283 283 284 284 283 285 284 284 284 285 284 282 282 283 282
284 282 278 276 273 275 277 274 274 276 279 279 277 278 281 281 279 281 282 280 284 282 282 281 281 281 279 279 279 280 278 277 276 278 274 272 273 276 277 272 270 266 264 265 266 266 268 274 274 276 278 278 279 279 281 281 282 282 282 281 281 283 283 283 283 283 284 283 282 283 283 283 284 284 283 284 284 284 283 284 285 286 287 287 284 282 283
280 280 279 274 273 275 277 276 277 279 280 281 281 280 282 281 282 283 283 281 283 281 283 281 280 279 280 280 277 277 278 277 276 277 277 276 276 271 266 267 264 265 264 265 267 270 272 277 278 279 281 281 281 282 283 283 283 283 284 284 283 283 283 283 283 282 282 283 283 283 284 283 284 283 283 284 283 284 284 283 284 285 286 285 284 282 283
282 279 277 274 277 277 278 278 279 279 279 279 280 280 282 284 281 282 283 279 282 283 280 278 277 276 277 279 277 276 276 277 271 273 276 272 268 267 266 265 264 267 270 269 273 275 279 282 282 281 281 283 283 284 283 282 282 282 283 283 284 284 283 283 283 283 282 282 282 283 284 284 283 283 283 283 282 286 285 284 284 284 284 285 284 282 282
281 280 280 277 277 276 278 279 279 278 279 280 280 280 280 281 281 284 282 283 282 280 282 283 280 278 279 277 274 274 274 276 276 275 269 269 269 269 266 264 264 266 272 276 275 276 277 280 280 282 282 282 282 282 282 283 282 282 283 284 284 284 284 283 283 283 283 283 282 283 283 282 283 284 284 285 286 285 285 284 284 284 284 284 284 282 282
282 280 279 276 277 279 280 277 276 276 277 280 279 280 279 281 281 284 283 281 281 278 277 278 279 277 274 272 271 269 274 276 273 271 270 270 271 268 265 267 268 270 274 276 278 277 278 279 279 280 280 280 281 282 282 283 282 284 284 284 283 283 283 283 283 283 283 283 283 283 283 283 285 285 286 285 285 286 286 286 286 285 284 283 282 284 283
277 278 281 281 280 280 280 279 279 280 280 280 281 281 280 283 282 284 283 282 280 280 278 278 279 275 271 271 272 275 279 275 272 272 271 273 273 269 267 268 272 275 277 277 280 281 280 282 282 281 281 281 281 282 282 283 283 283 283 284 284 283 284 283 283 283 283 283 283 283 283 283 283 283 284 284 285 285 284 284 284 283 283 283 284 283 284
Wind_Speed
16 16 16 17 18 19 19 19 18 16 16 5 4 2 1 2 1 2 4 1 4 3 1 2 1 1 3 3 3 2 2 2 2 1 1 1 0 1 1 1 1 1 0 1 1 2 0 2 2 0 0 0 1 5 6 2 5 4 1 1 1 3 1 1 5 6 6 6 3 3 3 7 6 4 2 5 2 2 4 5 5 5 1 1 1 1 2
15 16 17 18 19 19 20 18 19 16 11 5 4 1 2 1 0 3 1 2 2 1 0 2 2 3 4 1 3 3 2 1 4 1 3 0 3 1 1 4 1 1 1 1 1 2 1 3 5 2 1 2 4 8 7 5 2 1 1 2 3 1 3 3 1 3 3 3 4 5 5 5 4 2 3 2 1 1 4 3 1 2 5 7 7 4 3
16 16 17 18 19 20 19 19 18 16 11 6 2 0 1 1 1 0 2 3 2 1 3 3 1 2 1 2 5 6 3 2 1 1 2 3 1 0 1 1 2 2 1 0 1 2 1 0 3 1 3 3 3 8 8 5 5 3 1 1 2 4 1 2 1 4 3 4 3 3 2 1 2 3 2 5 7 4 1 3 2 3 2 4 3 2 4
16 17 18 19 20 21 20 18 16 15 12 3 3 3 1 0 3 3 1 5 1 0 1 2 2 0 0 2 1 1 3 4 3 3 0 4 2 1 1 2 1 2 4 3 4 4 2 2 1 3 3 3 3 2 7 5 2 4 9 5 2 2 2 3 3 4 4 5 5 6 2 1 4 1 7 5 3 1 4 4 3 7 3 5 4 6 6
16 17 18 19 21 21 21 19 17 17 14 10 5 2 1 1 3 1 1 2 2 2 2 1 2 1 2 1 0 2 2 2 3 3 1 3 3 1 3 3 3 3 2 1 1 2 2 5 2 3 1 2 1 7 3 4 7 6 5 7 4 3 3 3 1 3 2 3 1 6 2 2 4 2 2 5 7 3 5 1 3 2 8 4 1 5 11
17 17 18 19 21 21 21 19 19 18 10 15 2 2 0 2 1 2 1 3 2 1 2 0 1 1 1 0 1 1 2 3 1 4 1 1 3 1 2 6 4 2 1 0 1 4 2 2 1 3 1 2 4 3 5 4 6 6 2 3 4 3 1 3 2 2 5 7 6 6 4 7 4 7 6 8 2 10 7 1 2 0 3 7 6 7 8
16 17 18 19 21 21 21 21 19 17 5 10 0 1 1 2 1 0 1 1 3 2 0 2 1 4 2 0 1 1 2 3 1 1 3 4 3 3 1 3 5 5 4 2 0 1 0 1 2 1 3 2 2 4 2 1 4 3 3 5 2 5 1 1 2 2 5 10 9 6 5 2 6 11 10 8 5 7 5 4 2 1 0 3 9 6 4
16 17 18 19 20 20 22 22 19 16 3 2 2 2 1 1 1 0 3 4 2 1 1 1 3 3 3 0 1 0 1 2 4 2 1 1 2 1 1 3 5 3 2 1 2 0 2 0 2 1 2 7 2 0 3 3 4 3 2 0 3 1 1 1 5 5 4 8 9 7 6 4 5 8 11 12 7 3 6 3 4 5 8 7 8 9 6
16 17 18 19 19 20 21 22 20 19 3 1 1 1 2 0 1 1 2 3 3 2 2 1 2 2 4 2 2 1 1 1 1 2 2 2 1 0 1 2 4 1 1 0 1 3 3 4 7 6 2 1 2 3 5 2 6 3 1 2 1 4 1 1 2 2 3 4 7 5 2 4 9 10 14 14 12 8 6 4 3 2 6 6 9 7 4
16 17 18 19 19 19 20 21 21 20 10 4 1 2 1 1 1 2 2 3 4 2 1 1 2 2 2 1 3 1 2 1 1 2 3 2 2 1 1 2 0 4 4 4 4 4 4 8 7 6 5 3 3 3 10 7 2 2 2 0 2 2 3 3 1 3 1 3 5 3 5 2 4 7 7 8 4 4 3 2 5 3 4 11 8 4 2
15 16 17 18 19 19 19 19 19 18 9 5 3 1 1 1 1 2 4 6 3 3 1 3 4 1 2 4 1 2 3 6 3 1 3 2 2 1 1 1 1 3 3 4 6 5 7 7 8 0 5 4 6 7 8 8 6 7 5 2 1 3 4 3 0 2 1 3 5 4 1 2 2 1 2 3 3 6 3 3 4 5 3 1 2 4 7
15 16 17 18 18 19 19 18 18 17 10 0 2 1 3 1 4 3 3 6 0 3 3 1 0 2 2 4 3 2 4 4 4 1 3 2 5 2 1 1 2 4 4 5 6 7 7 2 2 4 9 8 8 6 1 4 7 1 3 6 4 5 3 2 1 2 0 1 2 3 2 1 1 1 4 5 3 6 7 7 7 6 3 7 9 9 9
15 15 17 18 18 19 18 18 18 18 14 2 2 1 2 1 1 2 6 7 2 2 1 1 2 0 1 4 4 3 3 4 3 2 2 2 3 3 0 1 1 4 6 11 10 5 2 1 4 2 0 2 4 3 11 9 8 6 4 4 8 6 6 3 2 1 0 1 2 2 1 0 5 2 6 8 2 5 2 4 8 7 6 4 9 5 9
15 16 16 17 18 19 18 18 18 17 16 6 1 3 2 0 1 2 1 5 2 1 1 1 4 5 5 4 2 3 3 6 7 1 3 1 1 3 3 2 3 7 8 5 2 0 2 4 5 4 3 6 1 4 2 3 8 10 8 5 2 9 4 4 2 1 1 0 2 0 0 0 4 3 5 6 4 6 3 3 4 7 4 1 9 6 7
15 16 16 17 18 18 19 19 18 18 15 12 2 3 3 2 1 4 2 6 4 0 1 1 2 2 2 2 2 4 4 4 6 4 3 2 1 1 3 6 7 8 6 1 2 4 2 4 3 2 2 3 1 1 2 1 3 4 6 5 4 2 4 3 4 1 2 3 2 1 1 0 1 1 3 2 3 2 3 1 3 4 6 4 7 13 12
15 16 16 17 18 18 19 19 18 18 17 15 2 1 2 2 2 5 3 5 6 3 3 2 3 2 0 1 1 2 1 2 2 3 6 5 2 8 6 5 9 4 3 3 2 2 1 3 4 2 1 2 2 1 1 3 2 3 4 6 8 7 7 4 5 2 2 2 3 1 1 0 0 6 6 5 4 5 2 0 2 2 2 4 9 8 3
15 16 17 17 18 18 18 18 18 18 16 15 4 2 6 4 1 2 4 4 6 1 4 2 1 2 4 2 4 2 0 1 2 2 3 5 4 5 10 9 5 2 6 3 5 4 5 4 2 4 1 1 1 3 1 2 1 4 9 7 10 9 5 5 6 3 2 3 3 1 1 1 3 7 8 7 2 3 1 0 1 1 2 2 5 10 8
15 16 17 17 17 17 18 18 18 18 16 15 3 2 3 4 3 3 6 5 6 1 3 1 2 3 3 1 0 2 1 2 3 1 1 3 2 4 5 6 10 5 3 5 3 5 3 2 3 2 3 2 1 2 1 1 2 0 1 2 3 5 4 6 3 2 4 4 1 1 1 1 4 7 10 8 3 2 1 2 1 2 4 3 3 9 7
15 16 16 17 17 17 17 17 18 18 18 17 5 1 4 4 5 6 8 4 5 3 4 2 2 2 1 2 1 0 0 0 1 1 4 5 1 3 3 4 1 4 7 2 4 3 2 1 0 1 2 3 3 1 0 3 1 1 2 3 5 4 2 2 3 5 3 1 4 1 2 2 4 9 7 6 1 1 3 2 3 2 3 5 4 6 3
14 15 16 16 16 16 17 17 17 18 17 17 6 3 1 3 4 3 4 6 2 4 1 1 0 3 0 4 3 3 2 4 0 3 1 1 5 5 1 3 3 2 5 3 4 0 3 2 1 0 4 2 2 2 4 1 1 2 1 0 3 2 2 1 2 1 2 3 4 2 2 1 8 13 5 4 2 1 1 1 6 6 3 7 4 4 3
14 14 15 16 16 16 16 16 17 17 17 17 7 1 4 3 4 4 3 7 6 6 4 3 1 0 1 2 3 5 5 3 0 1 1 4 3 1 3 1 4 2 2 2 2 2 1 2 3 1 1 1 3 3 2 1 3 2 3 1 3 1 2 1 1 0 1 2 3 1 3 6 10 4 2 2 0 2 2 1 5 7 6 5 7 5 4
13 14 15 15 16 16 16 16 16 17 17 17 10 3 4 4 2 3 2 5 4 3 4 1 0 1 2 2 4 4 3 2 1 3 1 2 4 3 2 0 1 0 0 2 3 1 2 0 0 3 3 3 3 3 1 4 3 5 3 3 4 8 2 1 4 3 2 1 2 1 1 4 4 4 4 3 4 5 4 8 6 7 7 4 8 8 7
12 13 14 15 15 16 16 16 16 16 16 17 9 4 1 4 6 4 1 5 3 1 3 3 3 2 2 1 2 5 3 1 4 3 3 3 2 2 1 1 3 1 0 1 1 3 1 2 1 3 3 2 3 2 6 4 2 3 4 4 6 0 2 2 6 5 6 7 3 1 2 3 6 5 4 6 7 6 6 10 11 8 6 5 9 9 9
12 12 13 14 14 15 14 14 14 14 15 14 7 1 2 1 4 4 6 6 3 4 2 5 4 1 2 1 2 2 0 0 0 0 1 2 3 2 2 2 1 1 1 2 3 1 1 2 1 2 4 1 2 4 3 5 2 0 2 1 3 3 1 3 6 2 3 2 2 3 3 3 5 8 8 7 7 7 8 10 10 9 9 11 10 10 9
12 12 13 14 14 14 13 12 12 13 13 14 10 2 0 3 2 3 2 2 1 2 3 1 2 3 3 3 1 1 1 0 1 1 3 4 4 3 1 1 1 0 2 1 1 5 3 3 2 3 5 1 2 1 1 6 1 1 4 1 2 3 2 8 3 3 4 3 1 2 2 2 3 2 7 8 8 9 8 8 8 9 9 10 10 10 10
12 12 13 13 13 12 12 11 11 11 12 13 8 3 3 1 3 1 6 4 3 4 4 1 1 3 3 3 2 1 0 2 3 6 5 1 1 1 0 0 2 3 2 2 4 5 3 3 3 1 5 1 1 3 3 1 3 0 6 1 1 1 2 1 0 4 2 3 2 1 5 6 5 4 3 4 6 8 7 6 8 8 10 9 8 8 8
13 13 13 12 12 11 10 10 10 10 11 11 4 1 1 0 3 5 2 1 4 3 3 2 3 5 4 2 1 3 1 3 6 6 7 8 7 4 5 4 3 4 6 4 3 4 4 3 4 3 2 0 2 2 2 3 3 3 3 3 3 4 4 1 6 6 0 4 4 3 5 0 1 1 1 3 3 6 7 5 6 7 7 7 7 5 3
13 13 13 12 11 10 9 9 9 9 11 9 4 1 0 4 3 2 2 3 1 4 4 1 1 2 3 1 2 3 5 4 5 5 5 6 8 8 7 5 4 5 4 3 4 5 3 6 3 1 0 0 4 3 2 1 3 5 6 5 1 2 3 4 3 6 4 6 5 2 4 5 3 4 1 1 2 4 6 5 4 4 5 7 9 6 5
13 13 13 12 10 9 8 8 8 8 9 6 2 2 2 1 1 3 3 1 5 6 5 1 2 3 2 2 4 3 3 6 4 5 5 6 7 6 6 6 4 2 3 4 3 2 3 1 1 2 1 1 5 1 4 4 3 2 2 5 3 1 2 1 3 5 1 1 6 4 4 5 3 3 2 0 1 5 4 2 1 2 3 4 5 7 8
14 13 13 11 10 9 8 7 7 7 6 1 2 4 3 1 1 4 5 2 2 3 3 2 4 0 3 1 3 3 1 3 4 6 7 6 7 5 5 4 4 2 4 3 2 4 0 2 1 1 1 1 2 1 3 1 3 0 3 3 1 2 3 3 3 3 3 1 3 2 5 5 2 2 1 1 1 4 5 3 3 2 1 3 5 3 3
14 14 13 11 10 8 8 8 6 5 3 2 2 1 1 1 1 1 5 2 0 4 3 3 2 1 2 0 0 5 4 4 3 4 4 3 1 2 2 2 3 3 4 4 4 0 1 3 1 2 2 3 3 3 4 3 2 2 3 3 0 5 6 5 4 5 7 6 5 5 6 5 4 5 3 3 3 5 3 1 1 2 2 4 4 5 4
15 14 13 11 10 9 8 7 6 4 3 3 2 1 2 2 2 3 4 2 1 3 2 3 1 1 0 2 1 1 2 1 2 3 2 3 4 4 5 5 2 2 3 2 0 2 3 1 1 2 3 4 5 3 3 4 5 2 1 0 1 3 3 5 6 4 5 8 9 8 5 2 1 6 4 4 2 2 5 4 1 2 5 5 4 3 3
15 14 13 12 10 9 9 7 6 3 0 2 5 3 5 6 6 5 3 1 3 1 2 4 2 1 1 1 3 4 4 3 6 5 2 3 2 3 3 4 3 4 3 4 3 2 1 1 1 6 3 2 3 2 4 3 3 4 2 0 1 4 4 3 4 3 3 1 5 6 3 2 1 1 5 3 2 4 4 4 3 4 5 6 5 4 4
15 14 13 11 10 8 8 7 4 1 3 3 2 2 1 1 2 1 1 3 3 0 2 2 1 1 1 3 4 3 2 1 1 2 1 3 0 3 1 3 4 3 5 3 2 2 2 4 4 1 4 5 2 5 2 0 1 0 1 1 1 3 3 3 4 5 4 4 4 5 6 5 3 3 3 3 2 0 1 3 5 7 4 5 4 4 4
15 14 12 10 8 7 5 3 2 3 1 0 0 3 2 3 1 1 1 1 1 1 2 1 2 2 1 3 1 2 1 3 3 2 2 2 1 2 2 3 4 5 2 2 4 2 2 1 1 6 1 4 4 1 2 3 2 0 0 1 0 3 4 4 0 0 2 2 3 3 3 5 6 5 4 3 2 0 1 1 3 7 5 4 5 5 5
15 14 11 9 7 2 0 2 3 1 2 0 1 3 3 4 4 1 1 1 2 3 2 0 1 2 3 2 0 1 1 1 1 1 0 0 3 3 3 2 4 1 1 3 1 3 2 1 3 2 3 4 1 2 2 3 3 2 3 4 5 5 5 6 6 1 1 2 4 4 5 4 5 3 4 4 2 0 1 3 2 3 5 5 4 3 2
13 11 9 4 2 2 2 1 2 1 1 2 3 2 4 3 1 1 2 2 2 2 3 2 5 0 2 1 1 3 2 1 3 3 5 4 0 2 3 3 1 2 3 4 3 4 3 1 6 3 3 2 1 2 1 3 4 3 1 3 5 5 2 0 2 5 4 4 5 3 3 4 3 1 2 0 1 1 1 1 4 6 5 5 5 5 6
10 5 2 2 2 2 1 1 1 2 3 4 3 2 4 6 0 3 3 3 2 3 4 4 3 0 1 3 1 2 2 1 1 1 1 0 1 1 0 2 0 1 2 1 1 0 2 5 2 3 1 2 3 2 1 1 2 2 1 2 3 2 3 6 5 5 5 3 1 0 2 4 3 1 3 1 1 2 4 5 3 1 2 5 6 5 4
2 1 3 3 3 0 1 0 3 7 2 1 3 1 1 1 1 1 1 1 2 2 2 4 1 0 4 4 0 2 2 1 3 3 2 2 1 1 1 2 2 3 1 2 2 3 3 3 3 3 1 3 2 1 2 0 1 1 1 2 1 1 4 6 6 7 8 6 5 5 6 4 4 1 1 1 1 2 3 3 4 4 4 5 5 4 4
3 2 1 1 1 1 4 5 7 2 2 1 2 2 0 1 3 0 1 2 1 1 1 3 0 1 0 3 3 2 1 2 1 1 1 1 0 2 1 1 1 3 0 1 1 2 5 2 1 2 1 2 1 1 1 1 2 2 1 2 2 3 2 2 1 1 1 3 1 1 1 2 5 5 5 4 3 1 0 1 2 2 3 4 4 5 6
2 1 1 1 2 2 3 5 4 2 1 1 1 2 1 1 1 0 1 1 1 0 0 2 1 2 1 2 2 1 3 2 1 3 3 1 1 1 3 1 1 2 1 1 1 2 2 3 1 2 6 2 2 0 0 1 3 1 1 1 4 3 4 4 3 2 0 0 1 0 1 2 4 4 4 5 4 2 2 3 2 2 3 2 4 6 4
1 1 1 1 1 2 2 2 2 1 1 0 2 0 0 1 1 2 1 2 1 0 2 1 1 1 1 1 0 2 1 0 1 1 1 1 1 1 0 0 2 2 0 2 1 2 3 1 0 1 3 3 2 0 1 1 0 1 0 0 1 4 5 5 4 4 2 0 1 1 1 3 3 3 3 4 3 4 4 2 1 1 3 4 4 3 3
3 2 3 0 1 1 1 1 2 1 1 1 3 1 1 1 0 2 0 0 1 2 1 0 0 0 1 2 1 0 1 0 0 1 2 0 1 2 2 1 1 2 1 1 2 1 2 1 1 3 3 2 3 2 3 3 1 1 1 1 1 1 2 4 4 3 2 1 2 1 0 1 1 0 1 1 0 0 2 3 4 4 3 3 4 4 4
2 1 1 2 1 1 2 1 1 1 1 0 2 2 0 1 0 1 2 0 0 1 0 4 2 3 1 2 1 1 2 2 3 2 1 0 1 1 1 1 0 2 1 2 2 2 1 2 3 1 2 2 2 2 4 3 2 1 1 2 1 1 0 1 1 1 2 2 3 2 3 4 2 1 1 1 2 3 4 4 4 3 3 3 3 4 3
1 2 2 1 1 1 1 1 2 2 1 1 1 1 2 4 2 1 3 2 2 2 1 3 4 5 2 1 1 1 1 0 1 2 0 0 2 1 1 0 1 2 2 0 1 1 1 1 2 2 1 2 3 3 3 4 3 4 3 1 2 2 1 2 2 1 2 3 4 3 3 2 2 2 2 2 2 3 3 4 1 1 2 2 2 3 4
1 2 1 3 2 2 1 0 0 0 1 2 1 5 4 3 4 3 1 1 4 2 5 3 4 5 2 1 3 1 1 1 1 0 0 2 2 0 0 0 2 2 1 2 1 0 2 3 3 2 3 3 3 4 4 4 3 2 1 3 4 2 2 2 2 1 2 2 2 2 4 3 4 3 4 4 2 1 2 2 2 2 3 3 3 4 4
1 1 2 1 2 1 0 1 1 1 2 1 2 5 6 6 5 3 2 2 6 5 4 1 3 2 4 1 1 1 2 1 1 1 1 1 0 0 2 2 0 0 2 0 0 1 1 2 2 3 2 2 2 1 1 0 1 2 2 3 2 2 2 1 2 3 3 1 2 4 4 4 5 4 3 4 4 4 3 2 2 2 1 2 2 3 4
1 1 1 1 2 1 1 1 1 1 1 2 3 3 2 2 5 4 2 1 4 3 4 3 3 2 3 2 3 1 0 1 1 1 0 1 1 2 2 2 0 1 1 3 3 4 2 3 3 2 2 3 3 1 1 1 1 1 1 1 2 3 3 3 2 3 3 3 4 4 4 5 5 4 4 4 5 5 4 3 3 2 3 1 0 2 4
2 1 0 1 1 2 1 1 2 5 3 4 3 3 4 8 5 3 0 1 4 3 2 3 2 2 1 1 1 1 1 1 2 1 1 2 1 1 1 0 0 1 2 3 1 2 3 4 1 1 2 1 3 4 4 3 4 4 4 4 4 5 4 4 4 3 3 3 3 4 5 4 3 3 3 2 3 7 4 3 4 3 3 3 2 3 3
1 1 1 1 2 2 1 2 6 3 2 2 2 3 2 7 4 1 0 2 1 2 1 3 2 4 0 1 1 2 0 1 1 0 2 0 1 1 2 1 2 3 1 1 2 2 1 1 1 1 3 3 2 2 3 3 4 4 4 4 4 4 4 4 4 4 3 2 3 4 4 3 4 4 5 6 6 3 3 2 3 2 3 2 3 3 4
0 1 1 2 3 0 1 3 6 4 3 4 5 4 3 4 3 2 0 3 2 4 4 2 0 1 1 2 1 1 1 0 2 0 2 1 1 2 2 2 2 5 5 4 5 4 4 3 4 3 2 3 4 4 4 4 4 4 4 3 3 3 3 2 3 4 4 4 3 3 3 5 6 6 6 3 2 2 3 4 2 1 3 3 3 4 4
1 1 0 1 1 3 3 2 2 3 4 5 4 2 2 3 2 0 0 6 4 5 1 0 1 1 2 1 1 1 0 2 0 1 1 1 1 2 2 4 3 4 5 2 2 3 3 4 3 4 4 3 4 4 4 3 3 4 4 4 4 4 4 4 4 3 4 4 4 4 4 4 3 3 2 1 1 0 2 5 3 2 3 4 4 3 4
Wind_Direction
338 339 339 334 331 333 335 335 334 337 337 351 3 323 16 62 155 262 148 194 91 72 46 285 38 217 237 281 290 263 287 203 286 307 315 347 107 320 20 285 47 244 170 308 344 10 344 348 308 233 111 203 243 293 326 68 29 77 320 36 285 106 47 26 295 302 295 291 273 333 302 105 51 14 80 56 356 252 181 179 184 143 147 71 10 102 241
340 341 339 335 332 332 335 334 332 333 340 332 312 42 105 124 77 32 71 77 86 81 274 319 299 279 305 29 268 279 238 34 345 337 319 338 329 58 288 335 78 263 357 323 5 315 86 3 30 352 347 65 341 359 16 97 41 81 237 137 268 51 290 124 339 355 347 328 335 339 329 43 93 84 329 349 320 242 224 93 66 111 217 163 131 217 266
343 343 341 336 332 333 335 333 328 325 319 302 182 115 157 91 324 6 306 8 74 227 187 157 192 276 290 344 352 350 348 307 231 251 321 338 312 46 334 229 302 338 310 332 283 325 114 215 358 97 9 332 320 4 15 46 85 37 52 59 101 104 209 99 162 183 188 195 234 251 266 177 163 120 1 24 31 351 20 193 83 176 235 119 129 212 254
345 345 342 337 334 334 335 332 325 323 316 167 147 195 53 114 132 306 11 8 22 257 106 136 149 143 310 30 307 28 333 326 325 36 233 39 335 59 291 329 76 340 23 9 9 343 350 83 286 43 355 322 350 337 343 28 102 100 58 36 86 112 67 76 139 150 191 223 238 262 184 357 91 176 60 14 359 45 117 96 113 191 202 175 226 173 156
347 347 343 337 336 334 336 335 330 328 322 200 157 112 109 168 98 155 175 343 29 249 349 72 72 244 145 89 296 339 324 271 311 353 72 5 3 341 53 0 35 336 43 334 344 334 324 354 71 11 346 272 263 318 331 348 15 43 56 354 82 65 53 32 83 174 240 260 276 321 25 86 18 26 98 81 32 17 72 104 220 256 106 239 268 189 146
347 347 343 339 336 336 338 339 340 341 349 166 165 81 23 74 253 117 182 128 235 66 316 85 162 350 103 251 68 305 360 1 31 323 4 332 9 84 332 24 30 315 274 112 59 328 334 14 29 337 328 338 339 41 348 43 354 2 47 11 96 117 104 314 53 305 355 6 3 351 37 64 72 32 10 40 38 60 65 336 275 17 149 208 194 174 160
347 345 342 338 338 338 340 344 346 353 7 155 62 102 289 130 183 176 312 152 249 162 189 105 112 64 56 238 25 325 41 340 253 204 318 21 339 62 64 328 335 327 340 108 81 16 84 312 312 66 332 24 339 25 329 352 5 54 20 7 97 95 61 265 83 330 11 3 357 7 39 68 41 23 10 351 26 85 106 78 22 93 247 226 141 133 101
347 345 342 339 339 339 341 346 349 357 66 170 14 59 94 346 91 300 3 87 89 294 59 86 53 73 328 51 284 189 309 329 327 332 102 349 304 11 94 290 320 310 355 49 104 231 171 188 275 263 58 334 46 296 171 275 312 47 75 21 321 97 256 37 42 35 343 351 357 22 17 61 61 8 11 3 347 64 50 94 28 53 52 79 107 106 92
348 344 343 341 341 341 343 348 351 354 82 186 115 21 88 207 162 153 109 60 318 342 27 42 86 52 340 61 284 4 302 307 269 267 194 172 256 172 260 282 315 303 59 77 253 217 213 211 206 233 202 231 250 60 281 29 317 347 15 29 332 69 128 60 52 86 311 345 346 327 353 27 66 24 4 357 355 21 349 30 331 103 122 97 97 106 127
345 343 344 343 343 342 343 349 355 355 359 126 100 45 301 36 308 72 105 86 314 64 8 46 58 14 236 192 258 166 289 291 339 356 288 199 218 201 228 243 193 308 0 312 268 266 233 257 251 215 216 191 257 257 257 260 224 271 145 213 81 84 120 89 86 102 265 319 329 327 349 10 1 4 335 321 295 283 303 7 24 30 139 130 154 177 142
344 345 346 345 344 344 344 349 356 5 15 71 83 13 3 60 310 22 49 94 350 43 69 6 101 225 331 301 293 25 1 357 5 99 291 15 317 192 200 243 314 268 247 264 286 274 267 256 264 99 100 154 229 242 254 266 233 196 150 89 42 76 100 107 138 119 220 328 327 341 43 188 237 11 346 281 311 303 349 32 3 346 53 177 162 109 120
345 347 347 346 345 344 345 348 358 8 21 144 125 210 223 121 84 93 90 93 54 349 91 113 209 299 38 319 64 61 32 347 308 251 255 277 276 344 23 29 112 321 249 274 311 313 282 266 356 96 148 192 214 258 326 59 16 34 149 134 135 119 94 122 121 102 197 310 28 72 199 224 42 296 353 332 321 23 78 60 32 5 41 102 92 113 118
346 348 349 347 345 345 346 349 356 3 9 32 135 325 277 179 146 119 116 105 92 339 42 22 318 231 290 27 41 352 298 276 294 302 247 244 307 350 274 278 202 255 319 311 322 340 43 30 359 350 156 143 205 215 50 36 41 33 30 99 126 141 126 149 55 112 35 45 4 144 202 299 321 317 3 344 308 8 2 33 24 11 346 88 101 91 113
350 350 350 348 347 346 347 349 352 356 2 15 162 245 287 330 108 86 101 97 53 287 202 345 348 7 12 30 359 305 330 352 333 351 9 285 269 283 293 204 258 293 294 303 337 332 41 42 47 352 342 344 337 27 331 21 48 38 25 11 68 136 100 105 85 320 153 87 73 181 72 176 18 5 10 2 346 342 14 46 345 355 353 345 113 79 105
352 351 351 350 349 347 348 349 350 351 355 2 189 299 318 338 117 126 160 89 136 182 111 96 286 287 18 2 34 27 13 316 10 324 284 289 263 255 288 287 305 305 309 359 354 37 117 106 60 84 333 18 89 229 329 31 304 45 43 35 68 65 134 206 105 293 109 133 76 360 26 207 104 186 273 291 248 215 209 141 351 23 17 51 105 129 140
352 352 352 351 351 349 349 350 349 350 354 358 95 257 348 351 115 86 107 132 122 35 309 239 221 220 127 9 348 58 315 320 321 312 333 331 281 321 310 318 313 325 339 75 68 96 83 104 148 96 150 203 239 44 326 343 5 328 33 35 62 43 68 101 113 136 62 45 111 145 156 251 41 312 317 299 223 209 193 38 10 12 54 91 117 94 61
353 353 353 351 351 350 351 350 349 351 354 1 339 350 38 355 74 123 100 58 75 149 240 276 125 104 73 350 8 11 4 352 314 11 332 324 303 286 298 325 297 26 10 80 11 51 31 54 102 129 230 225 78 145 48 27 45 336 335 5 37 42 7 20 55 33 41 127 72 77 12 14 333 324 317 319 261 164 185 22 268 48 98 112 128 124 126
351 351 350 351 351 351 351 350 350 350 353 355 24 58 6 358 68 102 55 92 109 39 311 164 98 51 53 185 199 267 64 16 21 51 190 278 325 332 325 343 346 337 60 86 3 64 39 58 59 101 86 331 144 60 98 238 58 279 339 353 7 2 3 37 77 96 32 71 80 16 339 315 341 322 314 313 284 173 100 208 278 349 113 91 112 130 135
347 347 348 349 350 351 351 351 351 351 352 353 354 36 9 8 17 77 116 82 82 107 258 283 125 138 184 72 131 174 176 182 162 92 319 360 337 280 259 263 27 343 1 78 48 69 69 317 51 108 94 334 28 104 331 43 333 328 65 14 13 13 57 347 56 30 37 23 95 170 231 239 319 319 313 288 342 73 230 271 309 292 89 105 119 118 107
343 345 346 347 347 350 351 351 351 350 352 357 17 113 247 325 6 71 108 115 98 117 269 310 74 110 176 112 76 35 338 25 53 117 143 234 283 358 30 5 328 56 351 51 47 329 88 11 281 348 39 29 18 143 61 53 46 55 60 358 103 321 73 12 37 316 55 31 59 33 33 282 3 321 327 17 89 230 287 356 14 24 58 101 94 106 122
341 342 344 345 346 348 350 351 351 349 353 356 17 76 12 336 16 24 100 127 112 83 338 290 73 205 128 141 166 143 124 76 18 31 225 210 252 81 87 209 266 10 354 52 76 336 60 349 343 44 214 95 299 49 142 202 23 19 68 95 93 9 90 35 38 348 113 36 60 119 252 287 322 351 114 338 304 285 286 143 58 32 42 70 87 60 93
340 340 341 343 345 347 349 350 349 350 353 356 5 86 52 315 360 5 84 93 102 119 187 227 244 217 223 215 193 175 157 163 217 164 138 8 347 97 164 147 271 182 273 116 35 10 5 202 97 52 17 338 20 74 169 71 35 305 348 58 39 335 89 176 119 328 98 138 158 230 260 290 317 22 66 59 32 48 60 83 81 77 44 28 80 76 66
340 340 341 341 343 345 347 348 349 349 352 357 13 76 109 322 341 352 78 59 358 19 3 9 1 349 340 304 211 205 246 173 109 84 130 109 1 6 69 36 324 225 338 118 134 132 159 100 84 149 87 45 111 67 35 102 134 357 56 355 131 201 88 57 71 64 77 57 57 98 8 30 40 32 43 66 64 47 69 84 83 59 67 54 91 83 80
339 342 340 340 338 342 345 346 347 345 348 353 9 68 338 290 312 8 32 65 110 119 358 5 69 343 253 15 359 354 36 319 87 51 161 127 101 322 322 261 219 27 12 278 177 116 207 108 183 122 91 272 87 52 103 42 42 97 65 11 345 315 17 60 102 155 59 37 341 46 48 32 63 71 56 56 63 69 78 80 82 96 92 83 74 81 79
340 339 340 336 336 338 342 343 342 342 343 350 356 335 168 15 2 40 109 127 3 88 137 325 317 231 236 231 295 36 268 112 72 83 53 72 122 126 178 294 171 52 311 328 65 54 39 79 26 51 89 319 103 40 246 112 8 94 70 323 36 26 75 73 84 63 96 174 212 323 342 356 353 51 92 80 75 76 72 86 97 93 84 85 91 88 84
338 337 337 335 333 334 338 339 339 339 337 345 6 45 79 18 307 82 79 65 93 108 101 114 348 328 332 24 30 256 334 24 34 40 39 25 158 166 182 31 25 34 89 72 74 94 100 55 74 86 92 357 72 108 38 159 151 112 106 101 257 242 37 87 170 91 20 36 12 33 54 28 8 16 59 99 117 109 99 101 101 99 96 92 82 93 107
337 336 335 336 331 331 334 332 338 333 331 341 359 42 115 289 357 48 92 164 93 15 39 114 278 300 0 13 291 331 357 21 22 31 27 28 38 28 69 69 73 8 46 23 36 108 62 88 83 44 69 92 82 96 121 37 53 59 28 316 347 51 59 45 75 76 81 174 194 164 97 38 322 14 56 58 65 101 103 98 93 99 101 99 100 63 48
336 336 335 332 331 328 324 328 330 331 330 342 351 357 133 72 354 21 76 122 109 173 159 200 45 293 314 146 343 3 344 33 46 49 43 24 29 36 54 67 76 53 14 64 17 23 31 62 43 236 98 334 57 24 11 141 65 36 22 343 349 113 188 122 135 153 214 241 207 166 137 141 208 198 249 350 14 78 88 89 97 90 105 125 115 104 79
333 333 332 331 328 326 325 321 326 327 331 355 20 36 7 25 21 26 39 76 102 98 92 168 304 22 102 229 324 359 355 54 31 47 48 24 27 33 55 52 74 133 87 71 101 107 92 113 180 78 40 195 98 13 37 24 47 57 308 307 337 294 157 159 185 151 347 182 149 178 142 155 202 232 223 106 33 98 93 106 124 144 123 107 126 144 138
331 333 333 330 328 326 319 318 323 331 343 52 47 48 40 330 327 43 359 47 119 120 101 102 81 222 284 354 330 320 320 37 19 41 40 26 20 22 15 41 34 50 85 102 124 70 294 112 329 298 319 19 114 156 74 183 74 276 298 311 294 36 61 72 172 148 148 178 137 156 120 99 70 142 119 133 126 112 111 129 144 112 97 141 132 170 154
329 330 333 332 327 324 318 323 324 343 48 81 77 52 47 67 295 313 10 17 109 108 125 99 128 277 25 310 40 351 329 0 15 28 15 34 61 359 323 85 38 67 45 2 41 64 79 22 22 339 330 46 104 89 153 112 80 355 301 299 347 80 80 69 43 88 110 101 96 81 78 93 118 82 54 97 149 124 105 85 2 67 123 119 138 154 145
327 328 330 330 328 323 315 313 331 357 65 91 113 166 185 192 220 305 346 332 59 54 74 71 9 18 278 322 309 295 356 16 35 16 354 21 0 5 19 58 67 22 93 103 188 53 32 223 88 344 39 336 69 96 72 81 106 181 260 223 68 109 112 94 87 85 110 120 98 66 67 37 71 143 182 209 158 110 124 140 151 92 88 95 83 70 90
323 325 326 327 325 320 312 312 326 22 6 222 222 228 244 250 270 289 296 330 47 92 116 83 134 205 108 234 325 346 18 20 13 26 7 336 359 11 29 360 13 33 354 76 3 70 263 85 338 53 320 21 78 89 90 109 177 201 216 268 103 124 112 109 115 117 118 99 112 134 161 162 189 188 149 161 166 144 139 124 134 107 94 88 88 92 86
321 320 321 319 316 314 315 316 341 351 17 52 41 6 314 192 52 41 48 72 97 58 76 106 67 52 249 306 72 295 32 84 318 32 44 320 167 68 326 24 354 74 344 58 287 61 348 63 44 312 340 17 34 76 55 326 309 330 314 314 354 51 71 90 105 115 135 133 125 139 158 162 136 131 106 139 214 300 72 108 110 88 102 120 142 158 158
316 316 313 312 312 314 316 3 34 47 97 352 247 257 266 315 240 283 92 109 83 346 33 11 107 92 27 6 48 277 327 79 15 335 86 304 37 45 342 57 329 67 312 76 44 64 51 345 192 68 2 310 44 35 246 235 252 285 280 98 14 86 62 66 356 28 8 358 75 75 74 120 117 137 177 214 219 358 109 86 99 120 118 159 167 174 171
312 309 309 307 313 345 51 27 55 50 24 11 235 265 317 307 319 331 94 109 126 146 91 232 72 123 137 129 83 292 35 58 310 351 323 316 357 14 83 102 56 301 248 74 106 356 53 313 68 47 297 62 214 188 234 190 198 228 204 182 201 170 176 182 174 202 17 42 61 79 68 62 114 181 224 227 213 93 120 114 44 87 134 152 178 176 156
305 303 309 328 19 45 24 234 289 117 199 204 244 292 359 18 358 53 9 29 358 93 130 141 64 122 153 197 245 278 64 62 350 30 342 30 237 298 33 35 70 317 37 4 13 27 309 37 96 68 27 115 334 313 227 178 172 162 193 201 210 233 250 354 118 118 76 53 69 80 109 95 45 21 70 336 177 85 99 186 167 148 159 179 183 180 187
298 318 49 39 41 49 19 326 337 285 289 328 9 35 356 31 63 338 359 32 302 57 1 65 78 296 7 77 56 267 73 292 52 101 324 239 52 344 13 81 248 50 44 314 333 224 13 35 55 103 14 262 262 282 302 296 297 328 329 317 283 243 173 141 138 115 116 97 28 82 46 52 60 358 94 95 143 166 206 216 207 276 203 176 182 172 142
91 49 46 38 94 125 175 248 284 319 326 334 48 69 345 2 61 21 334 291 17 25 313 87 348 185 87 60 359 294 111 127 34 33 98 288 95 317 23 75 309 71 336 36 295 47 49 342 8 37 33 316 15 22 4 325 299 290 287 285 303 168 164 162 168 156 164 180 194 197 165 165 153 155 234 200 263 268 258 235 227 195 184 186 172 171 168
36 49 82 40 89 239 263 283 327 340 65 84 328 103 92 327 93 26 297 59 360 309 43 48 264 110 153 148 145 9 347 57 64 58 121 318 8 119 262 89 275 87 15 80 282 33 113 117 305 70 248 291 265 296 28 276 91 17 343 23 57 71 109 150 238 318 300 307 256 193 229 176 158 159 181 202 184 158 317 294 236 182 180 197 173 160 179
18 61 38 75 249 287 283 295 335 50 65 39 10 9 68 19 346 185 71 47 95 222 220 146 16 39 12 74 77 103 291 81 137 132 112 93 260 74 49 77 236 79 329 21 293 65 69 71 16 140 213 240 221 249 305 236 107 64 19 33 80 79 94 93 51 357 66 153 174 147 180 173 151 166 182 176 174 179 205 210 210 204 180 153 175 206 210
202 158 196 203 269 283 331 8 60 51 11 87 112 304 251 223 299 19 94 120 217 202 345 78 53 129 79 79 195 115 334 205 112 96 100 60 312 104 207 324 19 102 151 235 106 57 75 103 304 275 261 252 262 264 289 203 207 199 189 264 103 105 76 57 39 14 43 60 283 206 175 166 155 172 193 169 179 191 198 201 237 221 204 200 178 172 176
272 178 130 54 34 355 63 55 321 98 99 7 42 40 343 75 170 139 249 299 300 91 269 295 172 160 326 47 41 123 169 255 85 346 71 147 303 55 75 20 45 64 222 307 63 47 52 141 221 245 253 238 222 225 246 247 218 216 248 264 280 272 131 120 107 99 9 77 117 95 84 103 121 241 255 280 235 237 253 233 203 201 217 179 192 194 185
114 93 37 355 70 294 70 94 296 51 4 40 102 147 259 62 328 23 52 317 359 33 232 132 206 101 131 332 137 329 9 3 56 78 50 296 81 5 48 45 276 246 322 39 42 87 199 223 202 221 239 253 282 262 255 256 226 294 307 301 309 303 245 112 117 101 71 63 72 90 108 132 149 188 117 141 168 215 255 261 249 209 185 152 177 206 199
82 6 35 21 35 277 69 299 325 113 153 239 135 156 145 154 209 153 150 233 98 179 66 82 113 90 104 289 39 352 105 208 300 97 253 52 48 359 100 280 258 28 76 182 353 331 7 41 298 324 228 212 252 252 238 249 235 202 214 280 293 251 210 166 191 150 186 176 167 149 140 174 158 195 206 205 217 211 202 251 243 152 170 169 178 189 193
79 153 89 81 348 317 109 168 12 56 291 155 192 191 152 209 154 166 230 125 98 86 100 123 88 88 56 289 123 197 346 75 53 336 117 72 97 15 251 264 69 66 19 43 57 150 212 237 263 265 247 239 248 254 242 243 261 275 219 203 251 287 323 346 316 281 232 240 249 183 204 206 212 234 248 244 226 220 203 226 262 220 156 147 196 216 203
80 11 88 112 102 269 96 117 235 201 171 198 217 167 142 164 190 164 171 111 128 167 118 162 102 150 120 352 33 355 31 54 95 283 70 51 113 255 27 88 26 72 112 26 245 242 267 266 245 239 242 249 259 286 314 296 205 176 221 240 259 266 268 269 273 282 276 205 224 247 255 238 242 243 256 284 272 245 254 250 245 231 192 214 201 178 172
108 241 91 98 213 195 99 251 220 61 32 124 163 164 177 148 88 64 16 79 151 103 88 69 59 358 29 313 88 139 260 359 75 311 129 172 29 43 11 35 355 252 175 151 215 225 223 242 230 247 259 259 248 223 160 149 175 182 214 216 228 226 230 227 272 284 281 281 268 251 245 242 242 251 250 248 273 279 246 231 237 241 235 262 134 154 169
143 118 137 185 194 147 227 273 80 77 345 17 25 56 96 99 118 143 250 50 84 97 160 118 171 90 68 288 83 43 30 341 87 258 18 33 83 196 136 186 23 47 254 172 207 216 217 230 245 259 284 251 191 175 189 205 193 203 214 214 218 224 223 226 229 237 251 251 247 244 253 248 238 238 261 286 284 277 257 208 223 218 203 198 197 178 181
68 353 20 57 24 339 300 33 69 62 10 34 44 70 58 100 111 154 203 64 28 88 25 42 49 92 209 91 17 7 10 314 141 359 60 13 183 168 72 47 235 178 219 260 240 246 236 234 197 255 255 249 254 235 225 250 237 243 241 234 238 230 233 239 256 264 262 252 245 237 242 262 259 243 234 240 239 248 262 224 218 234 266 220 189 192 203
337 111 230 192 127 168 115 142 154 156 165 169 150 175 138 133 152 139 264 120 89 53 42 94 305 79 32 26 56 55 256 189 49 94 155 195 204 98 147 176 241 211 226 232 219 224 224 214 179 218 256 258 242 239 233 236 248 254 256 253 259 277 294 288 269 280 293 292 277 267 255 238 233 225 236 241 267 277 286 287 270 246 258 257 215 204 210
47 63 26 298 100 131 133 126 93 128 151 164 155 219 116 103 234 239 120 99 59 91 153 246 82 57 62 118 215 196 327 44 42 42 36 287 133 123 210 196 216 223 216 226 239 239 249 256 214 212 220 233 245 240 239 253 266 281 288 276 274 287 296 299 293 279 282 293 290 265 264 271 272 263 244 189 170 168 263 262 275 292 270 269 265 235 223